KRUPKA Weather Reports


Display with metric or nautical units.
time (UTC)temp
F
wind
direction
speed
MPH
gust
MPH
rain 1hr
in
rain 24hr
in
rain mn
in
humidity
%
barometer
mb
20260506033004 46 266 4.0 7.0 0.00 0.00 0.00 89
20260506032503 46 270 4.0 11.0 0.00 0.00 0.00 89
20260506032008 46 272 4.0 7.0 0.00 0.00 0.00 89
20260506031504 46 259 4.0 7.0 0.00 0.00 0.00 89
20260506031003 46 262 2.0 7.0 0.00 0.00 0.00 89
20260506030504 46 261 4.0 7.0 0.00 0.00 0.00 89
20260506030004 46 252 4.0 9.0 0.00 0.00 0.00 90
20260506025503 46 253 4.0 9.0 0.00 0.00 0.00 89
20260506025003 46 262 4.0 7.0 0.00 0.00 0.00 89
20260506024505 46 266 7.0 9.0 0.00 0.00 0.00 89
20260506024003 46 264 7.0 11.0 0.00 0.00 0.00 89
20260506023504 46 278 2.0 7.0 0.00 0.00 0.00 89
20260506023004 46 273 4.0 7.0 0.00 0.00 0.00 89
20260506022503 46 257 7.0 13.0 0.00 0.00 0.00 89
20260506022006 46 267 4.0 9.0 0.00 0.00 0.00 89
20260506021504 46 271 4.0 7.0 0.00 0.00 0.00 89
20260506021004 46 283 4.0 9.0 0.00 0.00 0.00 89
20260506020503 46 286 4.0 7.0 0.00 0.00 0.00 89
20260506020004 46 281 2.0 4.0 0.00 0.00 0.00 89
20260506015502 46 274 2.0 7.0 0.00 0.00 0.00 89
20260506015011 46 260 2.0 7.0 0.00 0.00 0.00 89
20260506014504 46 270 2.0 4.0 0.00 0.00 0.00 89
20260506014003 46 252 2.0 4.0 0.00 0.00 0.00 89
20260506013504 46 262 4.0 9.0 0.00 0.00 0.00 89
20260506013003 46 272 4.0 7.0 0.00 0.00 0.00 88
20260506012502 46 269 4.0 9.0 0.00 0.00 0.00 89
20260506012003 46 264 4.0 9.0 0.00 0.00 0.00 89
20260506011503 46 268 4.0 9.0 0.00 0.00 0.00 89
20260506011003 46 268 7.0 9.0 0.00 0.00 0.00 88
20260506010503 46 266 7.0 9.0 0.00 0.00 0.00 88
20260506010003 46 262 2.0 4.0 0.00 0.00 0.00 88
20260506005503 48 269 7.0 9.0 0.00 0.00 0.00 88
20260506005003 46 250 4.0 7.0 0.00 0.00 0.00 88
20260506004504 46 260 4.0 7.0 0.00 0.00 0.00 88
20260506004003 48 265 7.0 7.0 0.00 0.00 0.00 87
20260506003503 48 271 4.0 7.0 0.00 0.00 0.00 87
20260506003004 46 271 7.0 9.0 0.00 0.00 0.00 87
20260506002502 48 275 7.0 9.0 0.00 0.00 0.00 87
20260506002004 48 276 7.0 9.0 0.00 0.00 0.00 87
20260506001503 48 279 4.0 7.0 0.00 0.00 0.00 87
20260506001003 48 268 7.0 9.0 0.00 0.00 0.00 87
20260506000503 48 283 7.0 11.0 0.00 0.00 0.00 87
20260506000004 48 267 4.0 9.0 0.00 0.00 0.00 86
20260505235503 48 279 7.0 9.0 0.00 0.00 0.00 86
20260505235003 48 277 7.0 11.0 0.00 0.00 0.00 86
20260505234503 48 278 7.0 9.0 0.00 0.00 0.00 86
20260505234004 48 271 7.0 9.0 0.00 0.00 0.00 85
20260505233503 48 291 2.0 7.0 0.00 0.00 0.00 85
20260505233004 48 272 0.0 0.0 0.00 0.00 0.00 85
20260505232502 48 316 2.0 4.0 0.00 0.00 0.00 85
20260505232005 48 307 2.0 4.0 0.00 0.00 0.00 85
20260505231503 48 343 4.0 9.0 0.00 0.00 0.00 85
20260505231003 48 337 7.0 13.0 0.00 0.00 0.00 85
20260505230504 48 342 9.0 13.0 0.00 0.00 0.00 85
20260505230003 48 340 9.0 11.0 0.00 0.00 0.00 85
20260505225502 50 345 9.0 13.0 0.00 0.00 0.00 85
20260505225003 50 324 7.0 7.0 0.00 0.00 0.00 85
20260505224503 48 333 4.0 9.0 0.00 0.00 0.00 85
20260505224011 50 338 9.0 11.0 0.00 0.00 0.00 86
20260505223503 48 316 7.0 9.0 0.00 0.00 0.00 86
20260505223004 48 298 7.0 9.0 0.00 0.00 0.00 86
20260505222503 48 304 7.0 9.0 0.00 0.00 0.00 87
20260505222005 48 296 9.0 18.0 0.00 0.00 0.00 87
20260505221504 48 277 11.0 18.0 0.00 0.00 0.00 87
20260505221003 48 284 7.0 13.0 0.00 0.00 0.00 87
20260505220503 48 276 9.0 20.0 0.00 0.00 0.00 87
20260505220003 48 268 11.0 20.0 0.00 0.00 0.00 88
20260505215503 48 266 9.0 13.0 0.00 0.00 0.00 87
20260505215008 48 283 11.0 20.0 0.00 0.00 0.00 88
20260505214503 48 282 18.0 25.0 0.00 0.00 0.00 88
20260505214003 48 293 11.0 18.0 0.00 0.00 0.00 88
20260505213503 48 281 13.0 22.0 0.00 0.00 0.00 88
20260505213003 48 279 9.0 20.0 0.00 0.00 0.00 88
20260505212503 48 286 16.0 27.0 0.00 0.00 0.00 89
20260505212004 48 274 13.0 22.0 0.00 0.00 0.00 88
20260505211504 48 278 7.0 13.0 0.00 0.00 0.00 88
20260505211003 48 283 4.0 11.0 0.00 0.00 0.00 88
20260505210503 48 270 13.0 29.0 0.00 0.00 0.00 88
20260505210003 48 283 9.0 16.0 0.00 0.00 0.00 87
20260505205503 48 285 11.0 18.0 0.00 0.00 0.00 86
20260505205002 50 294 9.0 13.0 0.00 0.00 0.00 86
20260505204504 52 260 13.0 20.0 0.00 0.00 0.00 85
20260505204003 54 262 7.0 13.0 0.00 0.00 0.00 85
20260505203510 54 31 7.0 11.0 0.00 0.00 0.00 86
20260505203004 54 23 9.0 13.0 0.00 0.00 0.00 86
20260505202504 54 33 9.0 11.0 0.00 0.00 0.00 86
20260505202012 54 15 9.0 11.0 0.00 0.00 0.00 85
20260505201503 54 26 11.0 13.0 0.00 0.00 0.00 86
20260505201003 54 25 9.0 16.0 0.00 0.00 0.00 85
20260505200504 54 21 7.0 13.0 0.00 0.00 0.00 86
20260505200004 54 34 11.0 16.0 0.00 0.00 0.00 86
20260505195502 54 14 9.0 16.0 0.00 0.00 0.00 86
20260505195003 54 19 13.0 22.0 0.00 0.00 0.00 87
20260505194504 54 26 11.0 18.0 0.00 0.00 0.00 86
20260505194003 54 19 9.0 13.0 0.00 0.00 0.00 86
20260505193504 54 359 9.0 18.0 0.00 0.00 0.00 85
20260505193004 54 14 11.0 16.0 0.00 0.00 0.00 85
20260505192503 54 4 9.0 18.0 0.00 0.00 0.00 85
20260505192005 54 10 16.0 27.0 0.00 0.00 0.00 85
20260505191504 54 12 16.0 20.0 0.00 0.00 0.00 85
20260505191003 54 7 16.0 27.0 0.00 0.00 0.00 84
20260505190503 54 12 13.0 27.0 0.00 0.00 0.00 84
20260505190004 54 6 18.0 25.0 0.00 0.00 0.00 84
20260505185503 54 10 20.0 27.0 0.00 0.00 0.00 84
20260505185003 54 8 20.0 29.0 0.00 0.00 0.00 84
20260505184504 54 10 13.0 31.0 0.00 0.00 0.00 84
20260505184004 55 12 20.0 29.0 0.00 0.00 0.00 84
20260505183503 55 7 18.0 22.0 0.00 0.00 0.00 84
20260505183004 55 9 20.0 25.0 0.00 0.00 0.00 83
20260505182503 55 3 18.0 25.0 0.00 0.00 0.00 84
20260505182006 55 17 18.0 27.0 0.00 0.00 0.00 83
20260505181503 55 4 20.0 27.0 0.00 0.00 0.00 82
20260505181002 55 15 18.0 25.0 0.00 0.00 0.00 82
20260505180503 55 10 18.0 27.0 0.00 0.00 0.00 82
20260505180004 55 11 18.0 27.0 0.00 0.00 0.00 82
20260505175503 55 12 13.0 25.0 0.00 0.00 0.00 82
20260505175003 55 4 22.0 29.0 0.00 0.00 0.00 82
20260505174503 55 8 18.0 22.0 0.00 0.00 0.00 81
20260505174002 55 15 18.0 25.0 0.00 0.00 0.00 81
20260505173503 55 10 18.0 25.0 0.00 0.00 0.00 81
20260505173008 55 12 18.0 27.0 0.00 0.00 0.00 81
20260505172504 55 10 16.0 27.0 0.00 0.00 0.00 80
20260505172005 55 8 16.0 20.0 0.00 0.00 0.00 80
20260505171503 55 4 13.0 20.0 0.00 0.00 0.00 79
20260505171003 57 5 13.0 20.0 0.00 0.00 0.00 79
20260505170502 57 356 18.0 22.0 0.00 0.00 0.00 79
20260505170003 57 8 16.0 25.0 0.00 0.00 0.00 78
20260505165504 57 17 13.0 18.0 0.00 0.00 0.00 77
20260505165003 57 4 13.0 25.0 0.00 0.00 0.00 76
20260505164504 57 5 16.0 27.0 0.00 0.00 0.00 76
20260505164003 57 31 13.0 25.0 0.00 0.00 0.00 75
20260505163504 57 13 18.0 22.0 0.00 0.00 0.00 75
20260505163004 57 24 18.0 27.0 0.00 0.00 0.00 74
20260505162503 57 13 16.0 25.0 0.00 0.00 0.00 75
20260505162003 57 13 13.0 20.0 0.00 0.00 0.00 75
20260505161504 57 6 13.0 25.0 0.00 0.00 0.00 75
20260505161003 57 16 13.0 25.0 0.00 0.00 0.00 75
20260505160503 57 9 16.0 27.0 0.00 0.00 0.00 75
20260505153003 59 16 13.0 20.0 0.00 0.00 0.00 75
20260505152504 59 7 16.0 27.0 0.00 0.00 0.00 75
20260505152005 59 9 13.0 27.0 0.00 0.00 0.00 75
20260505151503 59 3 11.0 20.0 0.00 0.00 0.00 75
20260505151003 59 8 13.0 20.0 0.00 0.00 0.00 75
20260505150504 59 10 13.0 25.0 0.00 0.00 0.00 75
20260505140503 55 23 13.0 22.0 0.00 0.00 0.00 81
20260505125003 64 19 7.0 13.0 0.00 0.00 0.00 58
20260505124503 64 12 11.0 16.0 0.00 0.00 0.00 58
20260505124003 64 13 7.0 13.0 0.00 0.00 0.00 58
20260505123504 64 6 9.0 13.0 0.00 0.00 0.00 57
20260505123003 66 8 13.0 22.0 0.00 0.00 0.00 57
20260505122502 66 12 9.0 16.0 0.00 0.00 0.00 57
20260505122006 66 17 7.0 13.0 0.00 0.00 0.00 57
20260505121503 66 22 11.0 20.0 0.00 0.00 0.00 57
20260505121003 66 34 7.0 13.0 0.00 0.00 0.00 57
20260505120503 66 11 9.0 13.0 0.00 0.00 0.00 56
20260505120003 66 6 9.0 13.0 0.00 0.00 0.00 56
20260505115502 66 18 7.0 18.0 0.00 0.00 0.00 56
20260505115003 66 33 7.0 11.0 0.00 0.00 0.00 56
20260505114503 66 10 4.0 11.0 0.00 0.00 0.00 57
20260505114007 66 338 2.0 9.0 0.00 0.00 0.00 58
20260505113504 64 10 4.0 11.0 0.00 0.00 0.00 58
20260505113004 64 6 9.0 16.0 0.00 0.00 0.00 57
20260505112504 66 14 7.0 11.0 0.00 0.00 0.00 57
20260505112005 66 10 9.0 11.0 0.00 0.00 0.00 56
20260505111504 66 9 4.0 11.0 0.00 0.00 0.00 57
20260505111003 66 10 7.0 11.0 0.00 0.00 0.00 58
20260505110503 66 16 7.0 13.0 0.00 0.00 0.00 57
20260505101504 64 6 4.0 9.0 0.00 0.00 0.00 59
20260505101003 64 6 9.0 11.0 0.00 0.00 0.00 59
20260505100503 64 11 4.0 11.0 0.00 0.00 0.00 59
20260505100004 64 19 7.0 11.0 0.00 0.00 0.00 58
20260505095503 66 20 7.0 13.0 0.00 0.00 0.00 57
20260505095003 66 14 7.0 13.0 0.00 0.00 0.00 57
20260505094503 66 15 4.0 11.0 0.00 0.00 0.00 58
20260505094003 66 6 11.0 13.0 0.00 0.00 0.00 57
20260505093504 64 8 7.0 11.0 0.00 0.00 0.00 59
20260505093008 64 3 7.0 13.0 0.00 0.00 0.00 60
20260505092503 63 1 7.0 13.0 0.00 0.00 0.00 60
20260505092004 63 10 7.0 11.0 0.00 0.00 0.00 60
20260505091503 64 1 7.0 11.0 0.00 0.00 0.00 59
20260505091003 64 9 4.0 11.0 0.00 0.00 0.00 59
20260505090503 64 10 4.0 9.0 0.00 0.00 0.00 59
20260505090004 66 7 7.0 13.0 0.00 0.00 0.00 58
20260505085503 64 24 7.0 13.0 0.00 0.00 0.00 58
20260505085003 64 20 4.0 7.0 0.00 0.00 0.00 59
20260505084503 64 33 4.0 11.0 0.00 0.00 0.00 60
20260505084003 64 14 4.0 9.0 0.00 0.00 0.00 60
20260505083503 64 15 7.0 11.0 0.00 0.00 0.00 60
20260505083004 63 2 9.0 13.0 0.00 0.00 0.00 60
20260505082503 63 3 9.0 16.0 0.00 0.00 0.00 61
20260505082006 63 11 9.0 13.0 0.00 0.00 0.00 62
20260505081503 61 5 7.0 11.0 0.00 0.00 0.00 63
20260505081003 61 11 7.0 11.0 0.00 0.00 0.00 62
20260505080503 63 9 4.0 7.0 0.00 0.00 0.00 62
20260505080003 63 2 4.0 7.0 0.00 0.00 0.00 63
20260505075503 63 16 2.0 7.0 0.00 0.00 0.00 63
20260505075003 63 7 2.0 9.0 0.00 0.00 0.00 64
20260505074003 61 42 2.0 7.0 0.00 0.00 0.00 65
20260505073503 61 27 2.0 4.0 0.00 0.00 0.00 65
20260505073004 61 8 4.0 11.0 0.00 0.00 0.00 66
20260505072504 59 3 2.0 7.0 0.00 0.00 0.00 67
20260505072006 57 355 4.0 9.0 0.00 0.00 0.00 67
20260505071503 57 8 4.0 11.0 0.00 0.00 0.00 67
20260505071004 59 3 7.0 16.0 0.00 0.00 0.00 67
20260505070503 57 357 7.0 13.0 0.00 0.00 0.00 67
20260505070003 57 353 7.0 11.0 0.00 0.00 0.00 67
20260505065503 57 357 4.0 11.0 0.00 0.00 0.00 67
20260505065003 57 342 7.0 11.0 0.00 0.00 0.00 67
20260505064509 55 5 7.0 11.0 0.00 0.00 0.00 67
20260505064004 55 348 11.0 16.0 0.00 0.00 0.00 67
20260505063504 55 355 9.0 18.0 0.00 0.00 0.00 67
20260505063004 55 3 9.0 13.0 0.00 0.00 0.00 66
20260505062503 55 1 9.0 13.0 0.00 0.00 0.00 66
20260505062006 55 348 7.0 13.0 0.00 0.00 0.00 66
20260505061504 55 342 9.0 18.0 0.00 0.00 0.00 66
20260505061003 55 358 9.0 16.0 0.00 0.00 0.00 65
20260505060503 55 346 9.0 16.0 0.00 0.00 0.00 65
20260505060003 55 348 7.0 9.0 0.00 0.00 0.00 64
20260505055503 55 358 7.0 13.0 0.00 0.00 0.00 64
20260505055003 55 350 7.0 11.0 0.00 0.00 0.00 64
20260505054503 55 350 9.0 16.0 0.00 0.00 0.00 64
20260505054003 55 339 11.0 16.0 0.00 0.00 0.00 63
20260505053503 57 343 7.0 13.0 0.00 0.00 0.00 62
20260505053003 57 357 9.0 13.0 0.00 0.00 0.00 61
20260505052503 57 345 4.0 7.0 0.00 0.00 0.00 61
20260505052008 57 354 7.0 9.0 0.00 0.00 0.00 61
20260505051503 57 350 7.0 9.0 0.00 0.00 0.00 61
20260505051003 57 352 4.0 9.0 0.00 0.00 0.00 61
20260505050502 57 356 7.0 9.0 0.00 0.00 0.00 61
20260505041504 55 350 9.0 13.0 0.00 0.00 0.00 63
20260505041003 55 354 9.0 13.0 0.00 0.00 0.00 63
20260505040503 55 357 7.0 13.0 0.00 0.00 0.00 63
20260505040005 55 4 9.0 13.0 0.00 0.00 0.00 63
20260505035508 55 358 9.0 16.0 0.00 0.00 0.00 63
20260505035003 57 350 9.0 16.0 0.00 0.00 0.00 62
20260505034501 55 4 9.0 13.0 0.00 0.00 0.00 63
20260505034003 55 5 11.0 18.0 0.00 0.00 0.00 63
20260505033504 55 7 11.0 16.0 0.00 0.00 0.00 63